STARLINK-2187 (48562 NORAD) Tracking and Keplerian Element Data

This shows tracking and keplerian element data for the satellite.

Feedback or suggestion? Click here.




ElementValue
Catalog48562
NameSTARLINK-2187
Epoch Orbit1140
Epoch Day210.79786269
Epoch Year2021
RAAN130.8322
Inclination53.0701
Eccentricity0.000208
Argument of Perigee81.0196
Mean Anonmoly279.1028
Mean Motion15.06402534
Decay Rate1.075E-05
L11 48562U 21041K 21210.79786269 .00001075 00000-0 91090-4 0 9999
L22 48562 53.0701 130.8322 0002080 81.0196 279.1028 15.06402534 11402

Live tracking and technical data element details for STARLINK-2187 (NORAD 48562). STARLINK-2187 can be tracked NOW for your location showing map with azimuth and elevation plus other details from your city location.

Track the satellite on the map from your city or location and see movement details for azimuth, elevation, latitude, longitude, range, height, and movement on the map or in text.







IsCatalogInMostPopularTable: catalog: 48562, numindb: 23
Update: records affected: 1



GetName: 48562 STARLINK-2187

Hit Count: updated at: Sat, 31 Jul 2021 14:42:59 GMT